Regional Weather Roundup
Issued by NWS Kansas City/Pleasant Hill, MO

Home | Current Version | Previous Version | Graphics & Text | Print | Product List | Glossary Off
Versions: 1 2 3 4 5 6 7 8 9 10 11 12 13 14 15 16 17 18 19 20 21 22 23 24 25 26 27 28 29 30 31 32 33 34 35 36 37 38 39 40 41 42 43 44 45 46 47 48 49 50

000
ASUS43 KEAX 070011
RWREAX

WEATHER ROUNDUP FOR EASTERN KANSAS AND NORTHWEST MISSOURI
NATIONAL WEATHER SERVICE KANSAS CITY/PLEASANT HILL MO
600 PM CST FRI MAR 06 2015

KSZ040-057-103>105-MOZ028-029-037-043-070100-
...KANSAS CITY METROPOLITAN AREA...

CITY           SKY/WX    TMP DP  RH WIND       PRES   REMARKS
K.C. INTL      CLEAR     54  20  26 SW9       30.20F
6HR MIN TEMP:  50; 6HR MAX TEMP:  60;

K.C. DOWNTOWN  CLEAR     55  23  28 SW7       30.20F
6HR MIN TEMP:  52; 6HR MAX TEMP:  60;

LEES SUMMIT    CLEAR     54  29  38 SW9       30.22S
6HR MIN TEMP:  48; 6HR MAX TEMP:  57;

OLATHE - IXD   CLEAR     53  24  32 SW9       30.22F
6HR MIN TEMP:  49; 6HR MAX TEMP:  59;

OLATHE - OJC   CLEAR     55  24  30 SW7       30.21F
6HR MIN TEMP:  48; 6HR MAX TEMP:  58;

LAWRENCE       CLEAR     57  21  24 SW10      30.21S

$$

MOZ001>008-011>017-020>025-030>033-038>040-044>046-053-054-070100-
...NORTHERN AND CENTRAL MISSOURI...

CITY           SKY/WX    TMP DP  RH WIND       PRES   REMARKS
ST. JOSEPH     CLEAR     53  22  29 SW8       30.18F
6HR MIN TEMP:  50; 6HR MAX TEMP:  61;

MOSBY          CLEAR     54  23  30 S6        30.21S
WARRENSBURG    CLEAR     50  30  46 S8        30.24S
WHITEMAN AFB   CLEAR     50  31  48 SW12      30.23F
6HR MIN TEMP:  46; 6HR MAX TEMP:  54;

CLINTON        CLEAR     50  32  50 S8        30.27S
SEDALIA        CLEAR     50  30  46 SW12      30.26S
6HR MIN TEMP:  46; 6HR MAX TEMP:  53;

WARSAW         NOT AVBL
MARSHALL       CLEAR     52  32  46 SW8       30.25S
CHILLICOTHE      N/A     53  24  32 SW6       30.20F
6HR MIN TEMP:  49; 6HR MAX TEMP:  59;

MOBERLY        CLEAR     50  28  43 SW8       30.23S
KIRKSVILLE     CLEAR     48  27  44 SW9       30.19S
6HR MIN TEMP:  45; 6HR MAX TEMP:  54;


$$

MOZ041-047>049-056>058-063>065-088>090-097-070100-
...EASTERN AND SOUTHERN MISSOURI...

CITY           SKY/WX    TMP DP  RH WIND       PRES   REMARKS
ST. LOUIS INTL PTCLDY    48  23  37 S9        30.26S
6HR MIN TEMP:  37; 6HR MAX TEMP:  51;

SPIRIT OF STL  CLEAR     47  23  38 S10       30.26R
COLUMBIA       CLEAR     49  29  46 W12       30.25S
JEFFERSON CITY CLEAR     53  26  35 W10       30.26R
MEXICO         CLEAR     48  36  61 SW9       30.24S
HANNIBAL       CLEAR     45  25  45 S7        30.22F
ROLLA          CLEAR     45  27  49 SW12      30.26R
OSAGE BEACH    CLEAR     52  25  35 SW9       30.28S
SPRINGFIELD    CLEAR     47  27  45 SW12      30.31F
BRANSON        CLEAR     48  25  40 CALM      30.36S
NEVADA         CLEAR     46  30  53 S10       30.30S
JOPLIN         CLEAR     49  28  44 SW16      30.32F
WEST PLAINS    CLEAR     43  23  45 S8        30.35F

$$

IAZ060-094-KSZ022-034>040-054-083-096-NEZ052-066-093-070100-
...KANSAS...SOUTHEAST NEBRASKA AND IOWA...

CITY           SKY/WX    TMP DP  RH WIND       PRES   REMARKS
TOPEKA         CLEAR     59  21  23 SW7       30.20S
6HR MIN TEMP:  53; 6HR MAX TEMP:  62;

MANHATTAN      CLEAR     62  17  17 SW8       30.17F
EMPORIA        CLEAR     53  28  38 SW14      30.22F
CHANUTE        CLEAR     54  27  35 SW15      30.28S
WICHITA        CLEAR     57  27  31 S10       30.25S
OMAHA          PTCLDY    58  16  19 VRB7      30.09F
LINCOLN        CLEAR     60  15  17 SW8       30.12F
FALLS CITY     CLEAR     58  17  20 SW10      30.14F
LAMONI         PTCLDY    49  23  36 SW8       30.14S
DES MOINES     PTCLDY    49  23  36 W7        30.10S

$$




USA.gov is the U.S. government's official web portal to all federal, state and local government web resources and services.